Hourly Data Report for October 09, 2014

All times are specified in Local Standard Time (LST). Add 1 hour to adjust for Daylight Saving Time where and when it is observed.

RANKIN INLET A
NUNAVUT

62°48'38.000" N
92°06'53.000" W
32.30 m
2303405
71083
YRT

Download Data

Hourly Data (October 2014)
Hourly Data Report for October 9, 2014
Temp Definition
°C
Dew Point Temp Definition
°C
Rel Hum Definition
%
Wind Dir Definition
10's deg

Wind Spd Definition
km/h
Visibility Definition
km
Stn Press Definition
kPa
Hmdx Definition


Wind Chill Definition


Weather Definition


TIME
00:00 Legend Double Dagger -1.4 -3.4 86 1 27 16.1 101.80   -8 Cloudy
01:00 Legend Double Dagger -1.5 -3.4 87 1 29 24.1 101.81   -8 LegendNANA
02:00 Legend Double Dagger -1.2 -2.9 88 36 23 24.1 101.81   -7 LegendNANA
03:00 Legend Double Dagger -0.8 -3.5 82 2 34 24.1 101.81   -8 Cloudy
04:00 Legend Double Dagger -1.0 -3.4 84 2 28 24.1 101.84   -8 LegendNANA
05:00 Legend Double Dagger -1.2 -3.6 84 2 26 24.1 101.87   -8 LegendNANA
06:00 Legend Double Dagger -1.3 -3.7 84 1 30 24.1 101.89   -8 Cloudy
07:00 Legend Double Dagger -1.2 -4.4 79 2 22 24.1 101.90   -7 LegendNANA
08:00 Legend Double Dagger -1.5 -5.0 77 3 27 24.1 101.92   -8 LegendNANA
09:00 Legend Double Dagger -1.7 -5.6 75 3 23 24.1 101.93   -8 Cloudy
10:00 Legend Double Dagger -1.9 -5.8 75 2 22 24.1 101.96   -8 LegendNANA
11:00 Legend Double Dagger -2.1 -5.8 76 3 21 24.1 101.95   -8 LegendNANA
12:00 Legend Double Dagger -2.6 -6.1 77 2 23 24.1 101.96   -9 Cloudy
13:00 Legend Double Dagger -2.8 -6.5 76 2 19 24.1 101.95   -9 LegendNANA
14:00 Legend Double Dagger -3.0 -6.7 76 36 23 24.1 101.93   -9 LegendNANA
15:00 Legend Double Dagger -3.2 -7.0 75 34 21 24.1 101.91   -9 Cloudy
16:00 Legend Double Dagger -4.0 -7.5 77 34 26 24.1 101.87   -11 LegendNANA
17:00 Legend Double Dagger -4.1 -6.9 81 34 19 24.1 101.84   -10 LegendNANA
18:00 Legend Double Dagger -4.7 -7.0 84 31 22 24.1 101.81   -12 Mostly Cloudy
19:00 Legend Double Dagger -4.7 -6.5 87 32 18 24.1 101.77   -11 LegendNANA
20:00 Legend Double Dagger -4.3 -6.2 87 33 28 24.1 101.69   -12 LegendNANA
21:00 Legend Double Dagger -4.3 -5.9 89 33 23 24.1 101.64   -11 Mostly Cloudy
22:00 Legend Double Dagger -4.4 -5.8 90 32 22 24.1 101.56   -11 LegendNANA
23:00 Legend Double Dagger -4.6 -6.3 88 31 21 24.1 101.53   -11 LegendNANA

Notes on Data Quality.

Legend

  • E = Estimated
  • M = Missing
  • NA = Not Available
  • ‡ = Partner data that is not subject to review by the National Climate Archives
Date modified: